TimePST,TemperatureF,Dew PointF,Humidity,Sea Level PressureIn,VisibilityMPH,Wind Direction,Wind SpeedMPH,Gust SpeedMPH,PrecipitationIn,Events,Conditions,WindDirDegrees,DateUTC
12:05 AM,43.0,39.9,89,30.12,10.0,WSW,13.8,-,N/A,,Overcast,240,2013-01-29 08:05:00
12:54 AM,44.1,39.9,85,30.13,10.0,SW,12.7,19.6,N/A,,Overcast,220,2013-01-29 08:54:00
1:23 AM,44.1,41.0,89,30.13,10.0,SW,10.4,-,N/A,,Overcast,230,2013-01-29 09:23:00
1:54 AM,45.0,41.0,86,30.14,10.0,SW,11.5,-,N/A,,Overcast,220,2013-01-29 09:54:00
2:22 AM,45.0,41.0,86,30.14,10.0,SW,15.0,19.6,N/A,,Overcast,230,2013-01-29 10:22:00
2:54 AM,45.0,41.0,86,30.16,10.0,SW,9.2,-,N/A,,Overcast,230,2013-01-29 10:54:00
3:11 AM,45.0,41.0,86,30.15,10.0,WSW,12.7,-,N/A,,Overcast,240,2013-01-29 11:11:00
3:54 AM,45.0,42.1,90,30.17,10.0,SW,15.0,19.6,N/A,,Overcast,230,2013-01-29 11:54:00
4:54 AM,45.0,42.1,90,30.17,10.0,SW,10.4,21.9,N/A,,Overcast,230,2013-01-29 12:54:00
5:54 AM,46.0,41.0,83,30.19,10.0,WSW,9.2,-,N/A,,Overcast,250,2013-01-29 13:54:00
6:54 AM,46.0,42.1,86,30.21,10.0,WSW,8.1,-,N/A,,Overcast,240,2013-01-29 14:54:00
7:06 AM,46.0,41.0,83,30.21,10.0,WSW,10.4,-,N/A,,Overcast,240,2013-01-29 15:06:00
7:13 AM,46.0,41.0,83,30.21,10.0,WSW,8.1,-,N/A,,Overcast,240,2013-01-29 15:13:00
7:49 AM,46.4,41.0,81,30.23,10.0,SW,8.1,-,N/A,,Overcast,230,2013-01-29 15:49:00
7:54 AM,46.0,41.0,83,30.23,10.0,WSW,8.1,-,N/A,,Overcast,240,2013-01-29 15:54:00
8:54 AM,46.9,41.0,80,30.27,10.0,WSW,4.6,-,N/A,,Overcast,250,2013-01-29 16:54:00
9:54 AM,46.9,43.0,86,30.28,10.0,SSW,5.8,-,N/A,,Mostly Cloudy,210,2013-01-29 17:54:00
10:54 AM,48.0,42.1,80,30.31,10.0,WSW,6.9,-,N/A,,Overcast,250,2013-01-29 18:54:00
11:54 AM,48.0,43.0,83,30.33,10.0,SW,9.2,-,N/A,,Overcast,230,2013-01-29 19:54:00
12:54 PM,48.0,43.0,83,30.33,10.0,WSW,8.1,-,N/A,,Overcast,240,2013-01-29 20:54:00
1:54 PM,48.0,43.0,83,30.33,10.0,SW,12.7,-,N/A,,Overcast,220,2013-01-29 21:54:00
2:54 PM,48.0,43.0,83,30.34,10.0,SW,12.7,-,N/A,,Overcast,220,2013-01-29 22:54:00
3:54 PM,46.9,43.0,86,30.36,10.0,SW,11.5,-,N/A,,Overcast,220,2013-01-29 23:54:00
4:54 PM,46.9,43.0,86,30.37,10.0,SSW,10.4,-,N/A,,Overcast,210,2013-01-30 00:54:00
5:54 PM,46.0,44.1,93,30.39,10.0,SSW,9.2,-,N/A,,Overcast,210,2013-01-30 01:54:00
6:25 PM,46.0,44.1,93,30.38,10.0,South,6.9,-,N/A,,Overcast,190,2013-01-30 02:25:00
6:54 PM,46.0,43.0,89,30.39,10.0,SSW,8.1,-,N/A,,Overcast,200,2013-01-30 02:54:00
7:54 PM,46.0,42.1,86,30.39,10.0,SW,12.7,18.4,N/A,,Overcast,220,2013-01-30 03:54:00
8:54 PM,45.0,41.0,86,30.40,10.0,SW,12.7,-,0.00,,Overcast,220,2013-01-30 04:54:00
9:54 PM,44.1,41.0,89,30.38,10.0,SSW,5.8,-,0.00,,Overcast,210,2013-01-30 05:54:00
10:07 PM,44.1,42.1,93,30.36,10.0,SSW,9.2,-,N/A,,Overcast,200,2013-01-30 06:07:00
10:23 PM,45.0,41.0,86,30.36,10.0,SSW,8.1,-,N/A,,Overcast,210,2013-01-30 06:23:00
10:54 PM,44.1,42.1,93,30.36,10.0,SSW,9.2,-,N/A,,Overcast,200,2013-01-30 06:54:00
11:54 PM,44.1,43.0,96,30.36,9.0,SSW,10.4,-,0.01,Rain,Light Rain,200,2013-01-30 07:54:00